Location: Bonn
(50.7330°N, 7.1000°E)
Time: 08:27:56
(UTC+02:00)

Iridium 67 - Visible Passes

Search period start: 30 May 2015 00:00
Search period end: 09 June 2015 00:00
Orbit: 776 x 779 km, 86.4° (Epoch: 29 May)

Date Brightness Start Highest point End Pass type
(mag) Time Alt. Az. Time Alt. Az. Time Alt. Az.
30 May 8.1 22:18:09 10° WSW 22:22:18 23° WNW 22:26:21 10° NNW visible
01 Jun 8.9 22:55:52 10° WNW 22:56:46 10° WNW 22:57:23 10° NW visible
02 Jun 8.4 22:19:11 10° WSW 22:22:39 17° WNW 22:25:58 10° NNW visible
05 Jun 8.7 22:20:41 10° W 22:23:05 13° WNW 22:25:15 10° NW visible
